Time,TemperatureF,DewpointF,PressureIn,WindDirection,WindDirectionDegrees,WindSpeedMPH,WindSpeedGustMPH,Humidity,HourlyPrecipIn,Conditions,Clouds,dailyrainin,SoftwareType,DateUTC
2013-10-08 00:14:00,64.0,53.0,-100.00,West,280,9.0,13.0,69,-99.99,,,-99.99,,2013-10-08 04:14:00,
2013-10-08 00:53:00,63.0,52.0,-100.00,WNW,290,9.0,13.0,66,-99.99,,,-99.99,,2013-10-08 04:53:00,
2013-10-08 01:13:00,63.0,51.0,-100.00,WNW,290,9.0,13.0,65,-99.99,,,-99.99,,2013-10-08 05:13:00,
2013-10-08 01:42:00,63.0,49.0,-100.00,WNW,290,11.0,16.0,62,-99.99,,,-99.99,,2013-10-08 05:42:00,
2013-10-08 02:12:00,62.0,49.0,-100.00,WNW,290,9.0,13.0,62,-99.99,,,-99.99,,2013-10-08 06:12:00,
2013-10-08 03:11:00,61.0,49.0,-100.00,WNW,290,11.0,18.0,64,-99.99,,,-99.99,,2013-10-08 07:11:00,
2013-10-08 04:12:00,61.0,49.0,-100.00,WNW,300,11.0,16.0,65,-99.99,,,-99.99,,2013-10-08 08:12:00,
2013-10-08 04:52:00,60.0,48.0,-100.00,WNW,300,11.0,16.0,64,-99.99,,,-99.99,,2013-10-08 08:52:00,
2013-10-08 05:12:00,60.0,47.0,-100.00,WNW,300,9.0,13.0,63,-99.99,,,-99.99,,2013-10-08 09:12:00,
2013-10-08 05:43:00,59.0,47.0,-100.00,NW,310,11.0,13.0,64,-99.99,,,-99.99,,2013-10-08 09:43:00,
2013-10-08 06:12:00,59.0,49.0,-100.00,NW,310,13.0,18.0,68,-99.99,,,-99.99,,2013-10-08 10:12:00,
2013-10-08 06:42:00,58.0,49.0,-100.00,NW,320,16.0,20.0,71,-99.99,,,-99.99,,2013-10-08 10:42:00,
2013-10-08 07:21:00,58.0,49.0,-100.00,NNW,330,13.0,20.0,72,-99.99,,,-99.99,,2013-10-08 11:21:00,
2013-10-08 08:42:00,58.0,49.0,-100.00,NNW,340,13.0,18.0,73,-99.99,,,-99.99,,2013-10-08 12:42:00,
2013-10-08 09:22:00,62.0,49.0,-100.00,NNW,330,16.0,20.0,62,-99.99,,,-99.99,,2013-10-08 13:22:00,
2013-10-08 09:42:00,62.0,48.0,-100.00,NNW,340,13.0,16.0,61,-99.99,,,-99.99,,2013-10-08 13:42:00,
2013-10-08 10:11:00,61.0,48.0,-100.00,North,360,11.0,16.0,62,-99.99,,,-99.99,,2013-10-08 14:11:00,
2013-10-08 11:11:00,60.0,46.0,-100.00,North,10,11.0,16.0,58,-99.99,,,-99.99,,2013-10-08 15:11:00,
2013-10-08 12:13:00,61.0,45.0,-100.00,North,360,11.0,16.0,56,-99.99,,,-99.99,,2013-10-08 16:13:00,
2013-10-08 13:12:00,63.0,43.0,-100.00,North,360,13.0,16.0,49,-99.99,,,-99.99,,2013-10-08 17:12:00,
2013-10-08 14:11:00,63.0,44.0,-100.00,North,350,11.0,16.0,48,-99.99,,,-99.99,,2013-10-08 18:11:00,
2013-10-08 14:52:00,64.0,44.0,-100.00,NNE,20,11.0,16.0,47,-99.99,,,-99.99,,2013-10-08 18:52:00,
2013-10-08 15:21:00,65.0,45.0,-100.00,North,10,9.0,13.0,47,-99.99,,,-99.99,,2013-10-08 19:21:00,
2013-10-08 16:12:00,65.0,44.0,-100.00,North,360,11.0,16.0,45,-99.99,,,-99.99,,2013-10-08 20:12:00,
2013-10-08 16:42:00,66.0,44.0,-100.00,North,10,11.0,18.0,45,-99.99,,,-99.99,,2013-10-08 20:42:00,
2013-10-08 18:13:00,66.0,45.0,-100.00,North,10,11.0,16.0,47,-99.99,,,-99.99,,2013-10-08 22:13:00,
2013-10-08 19:12:00,65.0,46.0,-100.00,North,10,9.0,13.0,50,-99.99,,,-99.99,,2013-10-08 23:12:00,
2013-10-08 19:52:00,65.0,45.0,-100.00,NNE,20,9.0,13.0,49,-99.99,,,-99.99,,2013-10-08 23:52:00,
2013-10-08 20:12:00,64.0,47.0,-100.00,North,10,9.0,13.0,53,-99.99,,,-99.99,,2013-10-09 00:12:00,
2013-10-08 20:52:00,63.0,48.0,-100.00,North,360,11.0,16.0,57,-99.99,,,-99.99,,2013-10-09 00:52:00,
2013-10-08 21:12:00,63.0,49.0,-100.00,North,10,13.0,16.0,60,-99.99,,,-99.99,,2013-10-09 01:12:00,
2013-10-08 22:42:00,62.0,48.0,-100.00,NNE,20,16.0,22.0,59,-99.99,,,-99.99,,2013-10-09 02:42:00,
2013-10-08 23:11:00,62.0,48.0,-100.00,NNE,20,16.0,22.0,59,-99.99,,,-99.99,,2013-10-09 03:11:00,
2013-10-08 23:44:00,62.0,47.0,-100.00,NNE,20,16.0,20.0,57,-99.99,,,-99.99,,2013-10-09 03:44:00,